This is the latest recevied weather packets stored in our database for station/object DL9GRB-13. If no packets are shown the sender has not sent any weather packets the latest 10 day(s).
| Time | Temp. | Humidity | Pressure | Rain* | Wind** | Luminosity | Snow |
|---|---|---|---|---|---|---|---|
| 1777639566 | 20.56° C | 38% | 1027.2 hPa | 0 mm | - | 697 W/m² | - |
| 1777639386 | 20.56° C | 37% | 1027.3 hPa | 0 mm | - | 700 W/m² | - |
| 1777639206 | 20.56° C | 36% | 1027.1 hPa | 0 mm | - | 703 W/m² | - |
| 1777639026 | 20.56° C | 37% | 1027.2 hPa | 0 mm | - | 702 W/m² | - |
| 1777638847 | 21.11° C | 36% | 1027.1 hPa | 0 mm | - | 702 W/m² | - |
| 1777638667 | 21.11° C | 38% | 1027.4 hPa | 0 mm | - | 708 W/m² | - |
| 1777638487 | 20.56° C | 38% | 1027.4 hPa | 0 mm | - | 704 W/m² | - |
| 1777638306 | 20.56° C | 39% | 1027.3 hPa | 0 mm | - | 705 W/m² | - |
| 1777638126 | 20.56° C | 38% | 1027.3 hPa | 0 mm | - | 703 W/m² | - |
| 1777637947 | 20.56° C | 39% | 1027.4 hPa | 0 mm | - | 718 W/m² | - |
| 1777637766 | 20.56° C | 37% | 1027.4 hPa | 0 mm | - | 721 W/m² | - |
| 1777637586 | 20.56° C | 38% | 1027.4 hPa | 0 mm | - | 717 W/m² | - |
| 1777637407 | 20.56° C | 39% | 1027.3 hPa | 0 mm | - | 710 W/m² | - |
| 1777637227 | 20.56° C | 38% | 1027.3 hPa | 0 mm | - | 709 W/m² | - |
| 1777637046 | 20.56° C | 39% | 1027.4 hPa | 0 mm | - | 756 W/m² | - |
| 1777636866 | 21.11° C | 38% | 1027.4 hPa | 0 mm | - | 746 W/m² | - |
| 1777636687 | 21.11° C | 38% | 1027.4 hPa | 0 mm | - | 748 W/m² | - |
| 1777636506 | 21.67° C | 37% | 1027.5 hPa | 0 mm | - | 742 W/m² | - |
| 1777636326 | 21.67° C | 39% | 1027.5 hPa | 0 mm | - | 732 W/m² | - |
| 1777636146 | 21.11° C | 42% | 1027.6 hPa | 0 mm | - | 754 W/m² | - |
| 1777635966 | 21.67° C | 38% | 1027.5 hPa | 0 mm | - | 751 W/m² | - |
| 1777635786 | 21.11° C | 37% | 1027.4 hPa | 0 mm | - | 753 W/m² | - |
| 1777635606 | 21.11° C | 37% | 1027.5 hPa | 0 mm | - | 759 W/m² | - |
| 1777635427 | 21.67° C | 37% | 1027.4 hPa | 0 mm | - | 762 W/m² | - |
| 1777635246 | 21.67° C | 36% | 1027.4 hPa | 0 mm | - | 764 W/m² | - |
* Rain latest hour (hover to see other rain measurements)
** Current wind speed in m/s (hover to see current wind gust speed)